| time (UTC) | temp F | wind direction | speed MPH | gust MPH | rain 1hr in | rain 24hr in | rain mn in | humidity % | barometer mb |
| 20260508183003 | 56 | 9 | 3.0 | 13.0 | 0.00 | 0.82 | 0.00 | 59 | 1000.8 |
| 20260508181503 | 56 | 63 | 4.0 | 10.0 | 0.00 | 0.82 | 0.00 | 60 | 1001.0 |
| 20260508180100 | 56 | 13 | 2.0 | 10.0 | 0.00 | 0.82 | 0.00 | 63 | 1001.3 |
| 20260508174559 | 56 | 26 | 3.0 | 8.0 | 0.00 | 0.83 | 0.00 | 63 | 1001.2 |
| 20260508173059 | 56 | 67 | 5.0 | 9.0 | 0.00 | 0.83 | 0.00 | 63 | 1001.1 |
| 20260508171556 | 54 | 66 | 2.0 | 9.0 | 0.00 | 0.83 | 0.00 | 66 | 1001.4 |
| 20260508170054 | 53 | 49 | 3.0 | 10.0 | 0.00 | 0.83 | 0.00 | 71 | 1001.7 |
| 20260508164549 | 51 | 47 | 3.0 | 6.0 | 0.00 | 0.83 | 0.00 | 70 | 1001.7 |
| 20260508163045 | 51 | 67 | 1.0 | 9.0 | 0.00 | 0.83 | 0.00 | 72 | 1001.5 |
| 20260508161545 | 51 | 49 | 3.0 | 7.0 | 0.00 | 0.83 | 0.00 | 73 | 1001.5 |
| 20260508160044 | 51 | 38 | 3.0 | 8.0 | 0.00 | 0.83 | 0.00 | 74 | 1001.6 |
| 20260508154544 | 51 | 72 | 4.0 | 10.0 | 0.00 | 0.83 | 0.00 | 73 | 1001.7 |
| 20260508153043 | 51 | 17 | 3.0 | 7.0 | 0.00 | 0.83 | 0.00 | 76 | 1001.6 |
| 20260508151544 | 51 | 81 | 2.0 | 9.0 | 0.00 | 0.83 | 0.00 | 77 | 1001.6 |
| 20260508150043 | 51 | 34 | 3.0 | 10.0 | 0.00 | 0.83 | 0.00 | 77 | 1001.8 |
| 20260508144541 | 51 | 11 | 4.0 | 9.0 | 0.00 | 0.83 | 0.00 | 76 | 1001.8 |
| 20260508143041 | 51 | 44 | 5.0 | 11.0 | 0.00 | 0.83 | 0.00 | 75 | 1001.7 |
| 20260508141540 | 52 | 43 | 3.0 | 7.0 | 0.00 | 0.83 | 0.00 | 79 | 1001.7 |
| 20260508140040 | 51 | 355 | 2.0 | 10.0 | 0.00 | 0.83 | 0.00 | 80 | 1002.1 |
| 20260508134538 | 51 | 15 | 5.0 | 11.0 | 0.00 | 0.83 | 0.00 | 80 | 1002.2 |
| 20260508133037 | 51 | 24 | 3.0 | 8.0 | 0.00 | 0.83 | 0.00 | 80 | 1002.7 |
| 20260508131532 | 50 | 52 | 3.0 | 8.0 | 0.00 | 0.83 | 0.00 | 83 | 1002.4 |
| 20260508130030 | 50 | 15 | 2.0 | 7.0 | 0.00 | 0.83 | 0.00 | 86 | 1002.2 |
| 20260508124525 | 49 | 344 | 1.0 | 7.0 | 0.00 | 0.83 | 0.00 | 87 | 1002.0 |
| 20260508123025 | 48 | 35 | 3.0 | 5.0 | 0.00 | 0.83 | 0.00 | 88 | 1002.1 |
| 20260508121525 | 48 | 360 | 1.0 | 5.0 | 0.00 | 0.83 | 0.00 | 91 | 1002.3 |
| 20260508120021 | 47 | 53 | 1.0 | 4.0 | 0.00 | 0.83 | 0.00 | 92 | 1002.3 |
| 20260508114520 | 46 | 30 | 1.0 | 5.0 | 0.00 | 0.83 | 0.00 | 94 | 1002.6 |
| 20260508113020 | 45 | 63 | 1.0 | 4.0 | 0.00 | 0.83 | 0.00 | 94 | 1002.6 |
| 20260508111521 | 44 | 320 | 1.0 | 5.0 | 0.00 | 0.83 | 0.00 | 94 | 1002.4 |
| 20260508110016 | 42 | 329 | 0.0 | 3.0 | 0.00 | 0.83 | 0.00 | 94 | 1002.4 |
| 20260508104518 | 42 | 117 | 0.0 | 0.0 | 0.00 | 0.83 | 0.00 | 94 | 1002.6 |
| 20260508103015 | 42 | 117 | 0.0 | 0.0 | 0.00 | 0.83 | 0.00 | 94 | 1002.9 |
| 20260508101512 | 41 | 348 | 0.0 | 0.0 | 0.00 | 0.83 | 0.00 | 94 | 1002.7 |
| 20260508100014 | 41 | 348 | 0.0 | 0.0 | 0.00 | 0.83 | 0.00 | 94 | 1002.7 |
| 20260508094507 | 41 | 348 | 0.0 | 0.0 | 0.00 | 0.83 | 0.00 | 94 | 1002.4 |
| 20260508093006 | 41 | 5 | 0.0 | 0.0 | 0.00 | 0.83 | 0.00 | 94 | 1002.4 |
| 20260508091505 | 41 | 17 | 0.0 | 0.0 | 0.00 | 0.83 | 0.00 | 94 | 1002.4 |
| 20260508090003 | 41 | 42 | 0.0 | 2.0 | 0.00 | 0.89 | 0.00 | 94 | 1002.3 |
| 20260508084502 | 41 | 63 | 0.0 | 5.0 | 0.00 | 0.89 | 0.00 | 94 | 1002.2 |
| 20260508083115 | 41 | 65 | 1.0 | 6.0 | 0.00 | 0.89 | 0.00 | 94 | 1002.0 |
| 20260508081602 | 41 | 40 | 3.0 | 7.0 | 0.00 | 0.89 | 0.00 | 94 | 1001.8 |
| 20260508080111 | 42 | 39 | 3.0 | 8.0 | 0.00 | 0.89 | 0.00 | 94 | 1001.8 |
| 20260508074554 | 42 | 48 | 2.0 | 7.0 | 0.00 | 0.92 | 0.00 | 94 | 1001.7 |
| 20260508073054 | 42 | 27 | 0.0 | 6.0 | 0.00 | 0.92 | 0.00 | 94 | 1001.7 |
| 20260508071559 | 43 | 22 | 5.0 | 10.0 | 0.00 | 0.92 | 0.00 | 94 | 1001.8 |
| 20260508070134 | 45 | 78 | 3.0 | 8.0 | 0.00 | 0.92 | 0.00 | 94 | 1001.8 |
| 20260508064545 | 46 | 69 | 1.0 | 7.0 | 0.00 | 0.92 | 0.00 | 94 | 1001.6 |
| 20260508063041 | 46 | 360 | 2.0 | 6.0 | 0.00 | 0.92 | 0.00 | 94 | 1001.6 |
| 20260508061544 | 47 | 11 | 0.0 | 1.0 | 0.00 | 0.92 | 0.00 | 94 | 1001.8 |
| 20260508060038 | 47 | 10 | 0.0 | 0.0 | 0.00 | 0.92 | 0.00 | 94 | 1001.5 |
| 20260508054537 | 47 | 17 | 0.0 | 3.0 | 0.00 | 0.92 | 0.00 | 94 | 1001.4 |
| 20260508053037 | 46 | 28 | 1.0 | 6.0 | 0.00 | 0.92 | 0.00 | 94 | 1001.5 |
| 20260508051536 | 47 | 299 | 0.0 | 0.0 | 0.00 | 0.92 | 0.00 | 94 | 1001.2 |
| 20260508050037 | 47 | 218 | 0.0 | 0.0 | 0.00 | 0.92 | 0.00 | 94 | 1001.2 |
| 20260508044532 | 47 | 218 | 0.0 | 0.0 | 0.00 | 0.92 | 0.00 | 94 | 1001.4 |
| 20260508043049 | 47 | 211 | 0.0 | 2.0 | 0.00 | 0.92 | 0.00 | 94 | 1001.5 |
| 20260508041530 | 48 | 183 | 0.0 | 2.0 | 0.00 | 0.92 | 0.00 | 94 | 1001.7 |
| 20260508040029 | 48 | 183 | 0.0 | 2.0 | 0.00 | 0.92 | 0.00 | 94 | 1001.5 |
| 20260508034525 | 48 | 154 | 1.0 | 3.0 | 0.00 | 0.92 | 0.00 | 94 | 1001.8 |
| 20260508033024 | 47 | 208 | 0.0 | 2.0 | 0.00 | 0.92 | 0.00 | 94 | 1001.9 |
| 20260508031524 | 47 | 215 | 0.0 | 5.0 | 0.00 | 0.92 | 0.00 | 94 | 1002.0 |
| 20260508030028 | 47 | 229 | 2.0 | 4.0 | 0.00 | 0.92 | 0.00 | 94 | 1002.1 |
| 20260508024520 | 47 | 236 | 1.0 | 3.0 | 0.00 | 0.92 | 0.92 | 94 | 1001.9 |
| 20260508023021 | 47 | 241 | 0.0 | 3.0 | 0.00 | 0.92 | 0.92 | 94 | 1001.7 |
| 20260508021519 | 48 | 224 | 0.0 | 4.0 | 0.00 | 0.92 | 0.92 | 94 | 1001.8 |
| 20260508020018 | 48 | 207 | 0.0 | 6.0 | 0.00 | 0.92 | 0.92 | 94 | 1001.8 |
| 20260508014518 | 48 | 236 | 1.0 | 5.0 | 0.00 | 0.92 | 0.92 | 94 | 1001.9 |
| 20260508013017 | 48 | 243 | 2.0 | 5.0 | 0.00 | 0.92 | 0.92 | 94 | 1001.8 |
| 20260508011519 | 48 | 218 | 2.0 | 4.0 | 0.00 | 0.92 | 0.92 | 94 | 1001.7 |
| 20260508010023 | 48 | 212 | 2.0 | 5.0 | 0.00 | 0.92 | 0.92 | 94 | 1002.0 |
| 20260508004516 | 49 | 245 | 2.0 | 6.0 | 0.00 | 0.92 | 0.92 | 94 | 1002.4 |
| 20260508003015 | 48 | 213 | 2.0 | 6.0 | 0.00 | 0.92 | 0.92 | 94 | 1002.2 |
| 20260508001515 | 48 | 191 | 1.0 | 5.0 | 0.00 | 0.92 | 0.92 | 94 | 1002.1 |
| 20260508000014 | 48 | 232 | 1.0 | 6.0 | 0.00 | 0.92 | 0.92 | 94 | 1002.4 |
| 20260507234514 | 48 | 225 | 1.0 | 5.0 | 0.00 | 0.92 | 0.92 | 94 | 1002.2 |
| 20260507233014 | 49 | 225 | 2.0 | 8.0 | 0.00 | 0.92 | 0.92 | 94 | 1002.3 |
| 20260507231517 | 48 | 191 | 2.0 | 5.0 | 0.00 | 0.92 | 0.92 | 94 | 1002.6 |
| 20260507230013 | 48 | 224 | 3.0 | 8.0 | 0.00 | 0.92 | 0.92 | 93 | 1002.9 |
| 20260507224511 | 48 | 136 | 0.0 | 9.0 | 0.00 | 0.92 | 0.92 | 93 | 1002.3 |
| 20260507223012 | 48 | 184 | 4.0 | 7.0 | 0.01 | 0.92 | 0.92 | 93 | 1002.8 |
| 20260507221511 | 48 | 169 | 5.0 | 11.0 | 0.01 | 0.92 | 0.92 | 93 | 1002.9 |
| 20260507220011 | 48 | 153 | 6.0 | 12.0 | 0.01 | 0.92 | 0.92 | 93 | 1002.9 |
| 20260507214510 | 47 | 207 | 3.0 | 8.0 | 0.02 | 0.92 | 0.92 | 93 | 1003.1 |
| 20260507213011 | 47 | 217 | 3.0 | 13.0 | 0.07 | 0.91 | 0.91 | 93 | 1003.3 |
| 20260507211509 | 47 | 178 | 7.0 | 18.0 | 0.15 | 0.91 | 0.91 | 93 | 1002.0 |
| 20260507210005 | 48 | 132 | 4.0 | 12.0 | 0.24 | 0.91 | 0.91 | 93 | 1003.0 |
| 20260507204503 | 48 | 135 | 3.0 | 10.0 | 0.35 | 0.91 | 0.91 | 93 | 1003.7 |
| 20260507203059 | 49 | 207 | 4.0 | 8.0 | 0.39 | 0.84 | 0.84 | 93 | 1003.9 |
| 20260507201604 | 49 | 88 | 0.0 | 4.0 | 0.42 | 0.76 | 0.76 | 92 | 1004.4 |
| 20260507200056 | 50 | 257 | 5.0 | 13.0 | 0.39 | 0.67 | 0.67 | 92 | 1005.0 |
| 20260507194559 | 50 | 181 | 5.0 | 11.0 | 0.35 | 0.56 | 0.56 | 92 | 1005.1 |
| 20260507193052 | 50 | 169 | 3.0 | 22.0 | 0.32 | 0.46 | 0.46 | 92 | 1004.6 |
| 20260507191610 | 50 | 167 | 10.0 | 17.0 | 0.24 | 0.35 | 0.35 | 92 | 1004.7 |
| 20260507190048 | 50 | 183 | 6.0 | 17.0 | 0.18 | 0.28 | 0.28 | 92 | 1005.1 |
| 20260507184556 | 51 | 181 | 6.0 | 17.0 | 0.12 | 0.21 | 0.21 | 92 | 1005.6 |